Flagstaff, AZ

1:13 AM MST on April 20, 2018 (GMT -0700)
Flagstaff Pulliam

Weather History for KFLG - June, 2015

Change the Weather History Date:

Monday, June 1, 2015

  Actual Average Record
Temperature  
Mean Temperature 60 °F 56 °F  
Max Temperature 77 °F 74 °F 88 °F (1977)
Min Temperature 42 °F 38 °F 24 °F (1923)
Degree Days  
Heating Degree Days 5 10  
Month to date heating degree days 5 10  
Since 1 July heating degree days 5939 6783  
Cooling Degree Days 0 0  
Month to date cooling degree days 0 0  
Year to date cooling degree days 0 0  
Growing Degree Days 9 (Base 50)    
Moisture  
Dew Point 26 °F    
Average Humidity 41    
Maximum Humidity 70    
Minimum Humidity 11    
Precipitation  
Precipitation 0.00 in 0.01 in 0.31 in (1991)
Month to date precipitation 0.00 0.01  
Year to date precipitation 10.93 8.12  
Snow  
Snow 0.00 in 0.00 in 0.00 in (2002)
Month to date snowfall 0.0 0.0  
Since 1 July snowfall 62.9 101.7  
Snow Depth 0.00 in    
Sea Level Pressure  
Sea Level Pressure 29.96 in    
Wind  
Wind Speed 10 mph (SW)    
Max Wind Speed 29 mph    
Max Gust Speed 36 mph    
Visibility 10 miles    
Events      
T = Trace of Precipitation, MM = Missing Value Source: NWS Daily Summary

Daily Weather History Graph

Daily Weather History Graph

Search for Another Location

Airport or City:

Astronomy

Jun. 01, 2015 Rise Set
Actual Time 5:13 AM MST 7:35 PM MST
Civil Twilight 4:44 AM MST 8:04 PM MST
Nautical Twilight 4:08 AM MST 8:41 PM MST
Astronomical Twilight 3:29 AM MST 9:20 PM MST
Moon 6:46 PM MST (6/1) 4:41 AM MST (6/1)
Length of Visible Light 15h 20m
Length of Day
14h 22m
Waxing Gibbous, 99% of the Moon is Illuminated
Jun 1
Waxing Gibbous
Jun 2
Full
Jun 9
Last Quarter
Jun 16
New
Jun 24
First Quarter

Hourly Weather History & Observations

Time (MST) Temp. Dew Point Humidity Pressure Visibility Wind Dir Wind Speed Gust Speed Precip Events Conditions
12:57 AM 48.0 °F 32.0 °F 54% 29.96 in 10.0 mi Calm Calm - N/A   Clear
1:57 AM 45.0 °F 32.0 °F 60% 29.96 in 10.0 mi Calm Calm - N/A   Clear
2:57 AM 44.1 °F 32.0 °F 63% 29.96 in 10.0 mi Calm Calm - N/A   Clear
3:57 AM 43.0 °F 33.1 °F 68% 29.96 in 10.0 mi Calm Calm - N/A   Clear
4:57 AM 43.0 °F 33.1 °F 68% 29.96 in 10.0 mi Calm Calm - N/A   Clear
5:57 AM 45.0 °F 34.0 °F 65% 29.96 in 10.0 mi Calm Calm - N/A   Clear
6:57 AM 57.9 °F 39.9 °F 51% 29.93 in 10.0 mi Calm Calm - N/A   Clear
7:57 AM 64.9 °F 30.9 °F 28% 29.94 in 10.0 mi SSW 8.1 mph - N/A   Clear
8:57 AM 69.1 °F 21.0 °F 16% 29.97 in 10.0 mi SW 13.8 mph 24.2 mph N/A   Clear
9:57 AM 70.0 °F 19.9 °F 15% 29.97 in 10.0 mi SSW 19.6 mph 25.3 mph N/A   Clear
10:57 AM 72.0 °F 18.0 °F 13% 29.96 in 10.0 mi WSW 17.3 mph 27.6 mph N/A   Clear
11:57 AM 73.9 °F 21.0 °F 14% 29.97 in 10.0 mi SW 23.0 mph - N/A   Clear
12:57 PM 75.0 °F 19.0 °F 12% 29.97 in 10.0 mi WSW 18.4 mph 31.1 mph N/A   Clear
1:57 PM 75.9 °F 18.0 °F 11% 29.95 in 10.0 mi WSW 21.9 mph 29.9 mph N/A   Clear
2:57 PM 75.9 °F 19.9 °F 12% 29.96 in 10.0 mi WSW 16.1 mph 32.2 mph N/A   Clear
3:57 PM 75.9 °F 23.0 °F 14% 29.94 in 10.0 mi SSW 20.7 mph 28.8 mph N/A   Clear
4:57 PM 75.2 °F 21.2 °F 13% 30.20 in 10.0 mi SW 25.3 mph 29.9 mph N/A   Clear
5:57 PM 72.0 °F 21.0 °F 15% 29.94 in 10.0 mi SSW 20.7 mph 28.8 mph N/A   Clear
6:57 PM 70.0 °F 21.9 °F 16% 29.91 in 10.0 mi SW 16.1 mph 24.2 mph N/A   Clear
7:57 PM 66.0 °F 23.0 °F 20% 29.90 in 10.0 mi SW 12.7 mph - N/A   Clear
8:57 PM 63.0 °F 21.9 °F 21% 29.92 in 10.0 mi WSW 6.9 mph - N/A   Clear
9:57 PM 57.0 °F 25.0 °F 29% 29.94 in 10.0 mi West 3.5 mph - N/A   Clear
10:57 PM 51.1 °F 27.0 °F 39% 29.95 in 10.0 mi Calm Calm - N/A   Clear
11:57 PM 46.0 °F 25.0 °F 44% 29.96 in 10.0 mi Calm Calm - N/A   Clear